Location: �quirre
(50.4736°N, 2.2351°E)
Time: 16:37:42
(UTC+00:00)

CZ-2D R/B - Pass Details

Date: 07 August 2020
Orbit: 552 x 639 km, 97.9° (Epoch: 19 September)

Event Time Altitude Azimuth Distance (km) Brightness Sun altitude
Rises 03:20:32 0° 12° (NNE) 2,815 7.9 -9.7°
Reaches altitude 10° 03:22:43 10° 10° (N) 1,897 6.9 -9.4°
Maximum altitude 03:26:48 72° 287° (WNW) 601 3.4 -8.9°
Drops below altitude 10° 03:30:46 10° 203° (SSW) 1,843 5.5 -8.5°
Enters shadow 03:31:13 - 202° (SSW) 2,024 5.7 -8.4°
